TITAN 3C TRANSTAGE DEB, 19592

Orbit data source: Space-Track

TITAN 3C TRANSTAGE DEB, 19592 is space debris in HEO originally from a launch on Tue, 21 Dec 1965 UTC launched from the Air Force Eastern Test Range (AFETR). Debris objects in space refer to the collection of defunct objects orbiting the Earth. Examples of debris include non-operational satellites, rocket bodies, and fragments generated from explosions, collisions, or faulty payload assembly.

Loading next visibility...
Identifier
19592, 1965-108AA
Orbit
HEO
Country
Flag of USUS
Related business
Manufacturer
Unknown
Mission
Spacecraft
Bus & Motor
Unknown
Mass
Unknown
Launch date (UTC)
1965-12-21 (60 years ago)
Launch vehicle
Unknown
Launch site
Air Force Eastern Test Range (AFETR)
Object type
Payload
Rocket body
Debris
Shape & HBR
Unknown shape, 0.3 m
Radar Cross Section
Medium (>0.1 m² and <1 m²)

Expand to show TLE details & history
Last TLE update: 3 days ago

TLE from 3 days ago
0 TITAN 3C TRANSTAGE DEB
1 19592U 65108AA  26032.21642053  .00000720  00000-0  53159-2 0  9996
2 19592  26.7418 254.9553 6704460 155.3795 264.8966  2.84114058341474
Epoch: 2026-02-01T05:11Z
TLE epoch observation values (Epoch: 2026-02-01T05:11:38.733Z)
Latitude
0.35338°
Longitude
46.37473°
Altitude
23,000.044 km
Speed
2.865 km/s
True Right ascension
17h 02m 51s
True Declination
0° 21' 10"
Sunlit
Object was in daylight at epoch
Visualization orbit readout
Latitude
Unknown
Longitude
Unknown
Altitude
Unknown
Speed
Unknown
Apparent Right ascension
Unknown
Apparent Declination
Unknown
Sunlit
N/A
Visualization observer readout
Local Sidereal Time
19:59:20
Azimuth
Unknown
Elevation
Unknown
Doppler factor
Unknown
Orbital elements
Apogee altitude
28,803.248 km
Perigee altitude
562.624 km
Semi-major axis
21,061.073 km
Eccentricity
0.67045
Inclination
26.7418°
RAAN
254.9553°
Arg. of periapsis
155.3795°
True anomaly
205.43518°
Mean anomaly
264.8966°
Eccentric anomaly
233.8704°
Mean motion
0.7101 °/min
Orbital period
506.97 mins
BSTAR
0.0053159
Loading maneuver chart data...
Computing Atmospheric mass density...

Documentation

Showing up to 5 results
|